Location: Country Club Park
(34.0503°N, 118.3212°W)
Time: 02:32:02
(UTC+00:00)

Cosmos 2346 Rocket - Pass Details

Date: 26 June 2022
Orbit: 937 x 979 km, 82.9° (Epoch: 08 August)

Event Time Altitude Azimuth Distance (km) Brightness Sun altitude
Rises 12:06:31 0° 189° (S) 3,580 7.0 -7.4°
Reaches altitude 10° 12:08:59 10° 191° (S) 2,641 6.4 -7.0°
Maximum altitude 12:15:01 75° 276° (W) 975 4.5 -5.9°
Drops below altitude 10° 12:21:07 10° 2° (N) 2,674 7.3 -4.9°
Sets 12:23:38 0° 5° (N) 3,628 8.1 -4.4°
